Temperature
23 22 22 21 20 20 22 23 24 24 24 24 24 23 22 21 21 21 20 21 20 20 19 19 19 19 19 19 19 19 19 19 19 19 19 18 18 18 18 18 18 18 18 18 18 18 18 18 18
23 22 22 22 20 21 22 23 24 24 24 24 24 23 21 20 20 20 20 20 20 20 20 19 19 19 19 19 19 19 19 19 19 19 19 18 18 18 18 18 18 18 18 18 18 18 18 18 17
23 23 22 20 21 21 23 24 24 25 25 25 24 23 21 21 21 21 21 20 20 20 20 19 19 19 19 19 19 19 19 19 19 19 18 18 18 18 18 18 18 18 18 18 18 18 18 17 17
23 23 22 20 22 22 23 24 24 24 25 24 23 22 21 21 22 22 21 21 20 20 20 20 19 19 19 19 19 19 19 19 19 19 18 18 18 18 18 18 18 18 17 17 17 17 17 17 17
24 23 20 21 22 23 24 25 25 24 24 24 23 21 20 21 22 22 21 21 20 20 20 19 19 19 19 19 19 19 19 19 19 18 18 18 18 18 18 18 18 17 17 17 17 17 17 17 17
24 21 20 21 23 24 24 25 25 24 24 24 23 21 20 21 22 22 21 21 20 20 20 19 19 19 19 19 19 19 19 19 18 18 18 18 18 18 18 18 18 18 17 17 17 17 17 17 17
23 20 21 22 22 24 25 25 25 24 24 24 23 20 20 20 21 21 21 21 20 20 20 19 19 19 19 19 19 19 19 19 18 18 18 18 18 18 18 18 18 18 17 17 17 17 17 17 17
24 20 22 22 23 24 25 25 25 25 24 24 24 21 20 21 21 21 21 20 20 20 19 19 19 19 19 19 19 19 19 18 18 18 18 18 18 18 18 18 18 17 17 17 17 17 17 17 17
24 20 22 23 24 25 25 25 25 25 25 24 24 23 23 22 21 20 20 20 19 19 19 19 19 19 19 19 18 18 18 18 18 18 18 18 18 18 18 17 18 17 17 17 17 17 17 17 17
24 21 23 24 24 25 25 25 25 25 24 23 23 23 23 22 21 21 20 20 20 19 19 19 19 19 19 19 18 18 18 18 18 18 18 18 18 18 18 17 17 17 17 17 17 17 17 17 17
23 23 23 24 26 26 25 25 25 25 23 24 24 23 22 22 21 21 21 21 21 20 20 19 19 19 19 19 19 19 19 18 18 18 18 18 18 18 18 18 17 17 17 17 17 17 17 17 17
24 24 25 26 27 26 26 25 25 25 26 27 26 25 23 22 21 21 21 21 21 20 20 20 19 19 19 19 19 19 18 18 18 18 18 18 18 18 18 18 18 17 17 17 17 17 17 17 17
25 25 26 27 27 26 26 25 25 25 26 26 25 24 23 22 22 22 21 21 21 21 20 20 20 19 19 19 19 19 18 18 18 18 18 18 18 18 18 18 17 17 17 17 17 17 17 17 17
25 25 25 26 26 26 25 25 25 25 26 25 24 23 23 23 22 21 21 21 21 21 20 20 20 19 19 19 19 19 18 18 18 18 18 18 18 18 18 17 17 17 17 17 17 17 17 17 17
25 24 24 25 26 26 25 24 24 26 25 24 23 23 23 22 22 22 22 22 21 21 20 20 20 20 19 19 19 19 19 18 18 18 18 18 18 17 17 17 17 17 17 17 17 17 17 17 17
24 23 24 25 25 25 26 25 24 25 24 23 22 22 22 22 22 22 22 21 21 21 20 20 20 19 19 19 19 18 18 18 18 18 18 18 17 17 17 17 17 17 17 17 17 17 17 17 17
22 22 24 24 25 25 25 24 24 24 24 22 22 22 22 21 22 22 21 21 21 21 20 20 20 20 19 19 19 18 18 18 18 18 18 17 17 17 17 17 17 17 17 17 17 17 17 17 17
23 23 23 23 24 24 24 23 23 24 23 22 22 22 22 21 22 22 21 21 21 21 20 20 20 20 19 19 18 18 18 18 18 18 18 17 17 17 17 17 17 17 17 17 17 17 17 17 17
23 23 22 23 24 24 23 23 23 23 23 22 22 22 22 22 22 22 21 21 20 20 20 20 20 19 19 19 18 18 18 18 18 18 18 17 17 17 17 17 17 17 17 17 17 17 17 17 17
23 23 22 23 24 24 23 23 22 22 22 23 22 22 22 22 22 22 21 21 20 20 20 20 19 19 19 19 19 19 18 18 18 18 17 17 17 17 17 17 17 17 17 17 17 17 17 17 17
23 22 23 23 23 23 24 23 22 22 22 22 23 23 22 22 22 22 21 21 21 20 20 20 19 19 19 19 18 18 18 18 17 17 17 17 17 17 17 17 17 17 17 17 17 17 17 17 17
22 22 23 23 22 21 23 22 22 21 20 21 21 22 22 22 22 22 21 21 21 21 20 20 20 19 19 19 18 18 18 18 18 18 18 17 17 17 17 17 17 17 17 17 17 17 17 17 17
23 23 23 23 22 21 21 21 20 20 21 21 21 21 22 22 22 22 22 22 21 21 20 20 19 19 19 18 18 18 18 18 18 18 17 17 17 17 17 17 17 17 17 17 17 17 17 17 17
24 22 21 18 19 21 22 21 21 19 21 21 20 21 21 22 22 22 22 21 21 20 20 20 19 19 19 18 18 18 18 18 18 18 17 17 17 17 17 17 17 17 17 17 17 17 17 17 17
23 20 19 20 19 20 20 20 20 20 20 20 20 21 21 21 22 22 21 21 20 20 20 20 19 19 19 18 18 18 18 18 18 18 17 17 17 17 17 17 17 17 17 17 17 17 17 17 17
21 20 20 21 20 19 20 20 20 21 21 21 21 21 21 21 21 22 21 21 20 20 20 19 19 19 19 18 18 18 18 18 18 17 17 17 17 17 17 17 17 17 17 17 17 16 17 17 17
21 20 19 18 19 20 20 20 20 21 20 20 20 20 20 21 21 21 21 20 20 20 19 19 19 19 18 18 18 18 18 17 17 17 17 17 17 17 17 17 17 17 17 17 17 16 16 16 16
21 18 17 18 19 20 21 20 20 21 20 20 19 20 20 20 21 21 21 20 20 20 19 19 19 18 18 18 18 18 17 17 17 17 17 17 17 17 17 17 17 17 16 16 16 16 16 16 16
20 19 17 16 17 18 20 20 20 20 20 19 19 20 20 20 21 20 21 20 20 19 19 19 18 18 18 18 18 17 17 17 17 17 17 17 17 17 17 17 17 16 16 16 16 16 16 16 16
22 19 18 19 19 17 18 19 21 19 19 19 19 20 20 20 21 20 20 20 20 19 19 19 18 18 18 17 17 17 17 17 17 17 17 17 17 17 17 16 16 16 16 16 16 16 16 16 16
Wind_Speed
4 3 2 1 5 6 4 5 3 4 3 2 5 6 7 4 2 3 4 10 14 13 15 18 18 17 17 16 17 17 17 17 17 16 16 15 15 15 15 15 15 15 15 15 16 16 16 17 17
3 3 1 3 6 4 4 5 4 3 3 4 5 5 6 4 4 7 6 9 14 13 15 16 18 18 17 16 16 16 16 16 16 15 15 15 14 14 14 14 15 15 15 15 15 16 16 16 17
3 2 3 5 4 2 2 3 1 2 2 2 4 5 4 4 6 6 7 14 13 11 14 17 19 18 17 16 16 15 15 15 15 15 14 14 14 14 14 14 15 15 15 15 15 16 16 16 16
2 3 5 6 3 3 4 3 1 1 3 4 4 5 4 3 6 7 14 15 14 10 13 17 19 18 17 16 16 15 15 14 14 14 14 14 14 14 13 14 14 14 14 15 16 16 16 15 15
3 4 6 5 3 3 3 3 3 1 1 3 4 5 3 4 10 15 15 15 14 10 12 16 18 17 17 16 16 15 15 14 13 13 13 13 14 13 13 14 14 14 15 15 15 15 15 14 14
4 5 5 2 4 3 2 3 2 1 2 2 4 4 2 4 11 14 14 12 11 11 10 14 17 17 16 16 15 15 15 14 13 13 13 13 13 13 13 13 14 14 14 14 15 15 13 13 13
4 4 3 0 3 3 1 2 3 2 2 2 4 5 2 5 8 12 11 11 9 9 8 10 14 16 16 15 15 14 14 14 13 13 13 13 12 12 12 13 13 14 14 14 14 13 13 12 12
5 5 3 0 1 3 1 1 2 3 2 3 5 7 6 7 11 12 11 10 9 8 7 7 11 12 13 14 14 14 14 13 13 13 13 13 12 12 12 12 13 13 13 13 12 12 12 11 12
4 5 0 3 3 4 2 1 1 2 4 3 3 4 7 17 16 14 13 10 10 9 6 6 8 10 11 11 13 14 14 13 12 12 12 11 10 10 10 11 12 12 12 12 12 11 10 10 11
4 2 5 5 5 4 3 3 4 3 2 2 3 6 16 19 17 17 16 16 14 13 10 7 7 8 10 10 10 10 10 11 10 9 10 10 9 9 9 10 11 11 11 10 10 10 9 9 9
4 5 5 5 5 4 4 3 4 6 5 8 8 14 19 18 16 16 15 15 14 13 12 9 8 8 8 7 8 7 8 9 9 10 10 10 8 7 6 6 7 8 8 8 8 8 8 7 7
3 6 5 5 3 2 4 4 4 7 9 7 11 19 20 20 19 18 17 14 12 12 12 10 9 8 8 8 7 7 7 7 7 9 10 9 6 5 5 4 5 6 6 6 6 6 6 6 6
3 5 4 6 6 4 4 6 5 6 6 7 14 17 19 19 17 13 11 11 11 13 12 11 10 9 7 6 6 7 6 7 8 8 9 9 6 4 4 4 4 5 5 5 4 4 4 4 5
3 5 7 7 4 2 4 3 3 6 5 11 15 16 16 17 16 13 12 13 13 13 12 11 10 9 7 6 5 6 7 8 8 8 9 9 8 6 4 3 3 4 5 5 4 3 3 3 3
3 5 8 4 2 1 2 3 5 4 9 11 13 14 14 13 14 16 16 14 13 12 11 11 11 9 9 8 7 7 8 9 8 8 10 10 9 8 6 4 3 4 5 5 4 3 3 3 2
4 5 5 6 3 2 3 6 5 5 10 10 11 12 12 11 13 12 12 11 11 11 11 11 11 10 9 7 7 6 8 8 8 9 10 11 11 10 7 4 4 5 5 4 3 2 2 2 2
6 3 4 8 3 2 0 6 5 3 9 9 10 10 11 10 10 10 11 12 12 12 12 11 10 11 10 8 6 6 7 7 8 9 9 10 11 11 8 5 5 6 4 3 3 2 2 2 3
2 2 4 7 6 3 3 6 5 3 7 8 8 8 9 11 12 9 10 11 11 11 11 11 10 10 9 7 5 4 4 5 7 8 10 11 11 11 9 6 6 6 4 3 3 3 2 2 3
3 1 6 8 6 3 4 5 4 1 4 5 6 8 9 10 7 6 8 9 10 10 10 11 10 10 9 7 7 6 5 5 5 6 10 11 11 11 9 6 5 6 5 5 5 3 3 2 2
2 4 6 7 4 2 3 4 3 1 5 7 8 9 10 8 6 7 8 9 10 11 11 10 10 10 10 8 6 4 4 4 4 4 7 11 11 11 10 7 5 6 5 5 5 4 3 2 3
4 5 6 6 6 5 3 6 4 2 1 2 4 5 6 9 10 9 9 10 10 11 12 12 11 10 10 8 5 4 3 3 3 4 5 7 11 12 10 9 7 6 6 6 6 6 6 4 2
5 7 7 4 1 4 3 3 7 4 4 4 5 5 6 7 7 7 8 9 10 11 11 10 10 10 9 9 9 9 7 6 6 5 5 6 9 10 11 10 9 7 6 6 7 6 5 5 3
8 2 3 1 3 1 3 1 8 3 4 7 6 5 5 6 8 8 9 9 9 9 10 9 9 9 9 9 10 9 6 5 4 4 6 6 5 8 9 9 8 7 6 6 6 6 6 5 5
5 5 6 6 5 1 2 2 7 4 6 5 4 4 4 6 7 7 6 7 6 7 8 8 9 8 9 9 9 9 8 7 6 6 6 6 4 4 6 8 8 7 6 7 6 6 7 6 5
5 6 5 5 4 5 4 2 9 7 6 6 5 4 4 5 6 7 7 7 7 8 8 8 8 8 8 9 8 9 8 8 8 7 7 6 5 5 6 6 6 6 7 7 7 6 6 7 6
6 9 8 5 5 5 3 5 7 5 4 2 3 4 5 5 5 6 7 7 7 7 7 8 9 8 8 8 8 7 8 6 6 7 6 7 6 6 6 7 7 7 7 7 7 6 6 6 6
8 5 8 7 3 1 6 7 8 2 2 2 4 5 6 5 5 6 6 7 7 8 7 8 8 7 7 8 7 7 7 7 7 6 5 5 5 5 6 7 7 7 7 7 6 5 6 6 6
7 10 7 7 6 3 5 5 5 6 5 3 4 6 5 5 6 6 6 6 6 6 6 6 6 6 6 6 6 6 6 6 6 6 6 6 6 5 5 6 6 6 6 6 6 5 5 6 6
6 6 6 6 6 7 4 7 7 9 8 8 7 7 7 7 7 7 6 6 5 5 5 5 5 4 4 5 4 4 4 5 5 5 5 5 5 5 5 6 6 6 6 5 5 5 6 6 5
6 9 9 6 5 5 5 8 6 6 6 7 7 7 6 7 7 7 7 6 5 5 5 5 5 5 4 4 4 4 3 4 4 4 4 4 5 5 6 5 5 6 5 5 6 6 5 6 6
Wind_Direction
205 166 154 109 57 47 15 340 14 43 40 60 99 104 110 105 157 155 124 138 135 140 147 146 143 138 133 128 123 120 118 117 117 118 118 119 120 119 119 118 116 113 112 111 110 109 109 110 111
160 163 124 61 70 49 337 331 23 41 111 109 83 84 83 76 79 109 128 141 138 141 144 147 145 141 137 132 128 124 122 121 120 120 121 120 121 121 121 119 117 115 114 113 112 111 111 112 112
184 173 78 64 78 131 284 314 29 37 68 83 82 68 86 120 129 138 149 141 135 138 143 151 148 145 141 137 133 129 126 125 124 124 123 122 122 122 121 120 118 117 116 116 115 114 115 115 114
136 56 53 64 70 225 225 238 199 82 31 46 90 77 70 100 140 141 140 141 137 136 145 154 150 148 145 141 137 134 132 130 128 126 125 124 124 123 123 123 120 118 118 117 117 116 116 116 116
66 72 55 39 324 265 233 220 182 141 55 49 85 93 61 36 112 131 140 143 142 139 146 155 153 151 149 146 143 140 137 134 132 129 127 126 125 125 125 123 121 119 118 118 118 118 117 116 117
55 62 67 14 320 300 246 202 144 112 100 90 96 104 69 108 128 139 141 141 142 142 143 153 155 155 154 152 149 146 142 139 136 133 132 129 128 128 126 124 123 120 119 119 118 118 115 114 116
94 86 110 197 312 314 249 147 154 152 135 150 126 111 108 136 139 136 134 133 134 137 139 148 155 158 159 157 154 150 147 144 142 139 136 134 132 130 129 127 125 123 122 121 120 120 117 115 118
118 100 79 271 257 275 234 133 161 155 165 125 126 147 177 165 138 128 126 128 134 136 139 143 149 154 158 159 158 153 151 149 147 144 142 139 138 135 131 129 129 127 125 123 121 119 117 117 118
92 73 184 223 210 251 204 172 190 138 125 128 141 169 158 140 138 136 138 141 153 156 151 146 146 149 154 157 162 158 156 155 151 149 146 137 130 130 131 134 134 132 129 127 123 119 116 113 114
93 130 234 218 206 215 214 201 179 144 149 168 105 99 131 143 151 156 161 166 171 172 169 159 154 152 156 161 158 156 153 151 146 143 137 132 132 132 136 143 141 137 133 131 127 120 111 105 106
154 202 245 253 228 213 207 211 173 156 214 212 177 151 151 156 163 170 173 175 176 173 174 169 163 160 160 152 151 149 145 143 141 141 139 138 134 131 131 131 131 129 127 120 116 106 105 110 115
197 253 244 270 258 207 202 192 185 195 225 203 164 156 161 169 176 180 178 177 172 173 177 170 169 166 164 154 151 147 144 143 144 149 149 144 135 131 132 129 125 121 121 116 112 108 109 116 126
241 282 280 263 279 241 209 205 204 230 234 139 141 156 171 178 183 180 173 170 170 176 178 175 174 170 161 152 156 156 156 157 158 159 162 160 150 147 146 145 142 135 131 128 121 117 118 120 129
272 284 295 291 287 244 192 229 189 242 158 142 152 167 176 179 176 172 172 176 179 181 178 176 176 170 162 163 159 156 165 166 166 173 176 174 169 164 159 158 161 158 151 146 139 135 128 120 127
315 330 328 322 320 279 125 305 231 205 144 152 165 172 176 180 178 184 184 181 180 180 177 178 179 172 172 171 169 169 174 175 176 181 186 185 182 178 174 170 179 185 170 152 136 126 116 118 119
24 23 336 309 333 325 114 270 270 163 154 163 171 176 181 186 189 191 183 176 174 174 178 182 186 179 179 175 170 170 174 178 184 184 188 191 190 187 181 181 191 186 171 159 145 136 127 124 129
25 3 312 310 328 17 177 262 287 156 159 170 177 182 185 187 194 192 182 177 176 176 179 181 183 178 182 177 171 170 172 181 186 184 187 192 191 191 185 188 194 179 164 167 173 146 146 153 152
249 316 312 296 304 344 294 270 288 175 168 178 181 184 187 196 204 191 179 174 173 173 177 180 181 178 176 168 158 162 171 183 186 186 189 188 190 192 186 190 190 178 166 170 169 145 136 142 149
160 257 288 276 288 299 288 291 289 203 167 183 191 194 196 206 199 172 169 170 170 171 177 181 184 178 172 172 175 179 189 186 185 193 190 187 189 190 187 192 183 178 180 184 172 148 145 138 132
195 282 288 296 335 352 311 318 320 211 203 200 201 203 198 189 175 172 168 173 179 179 183 187 190 182 181 185 180 175 166 175 179 184 187 189 191 192 193 188 183 184 177 175 175 159 150 162 160
227 216 244 270 333 8 13 339 329 317 273 235 222 206 194 187 186 181 176 177 178 183 188 194 193 187 185 174 154 134 116 109 151 183 191 194 196 196 195 191 187 185 182 187 187 178 167 170 179
254 229 218 248 345 314 26 298 292 295 293 260 246 215 194 186 180 178 172 178 183 188 188 187 183 184 183 171 173 173 180 183 190 189 190 189 196 196 196 192 190 187 188 190 194 187 178 161 172
217 208 187 238 169 346 1 167 285 313 271 256 250 232 191 177 172 176 180 183 182 180 180 179 175 180 181 179 184 185 189 187 173 170 178 189 198 200 197 194 191 189 193 195 192 181 182 177 176
175 74 55 47 75 21 280 188 277 256 243 261 248 234 189 165 161 163 162 159 159 162 166 168 171 180 180 181 183 187 187 180 174 181 188 194 195 200 199 196 194 193 194 196 197 190 186 190 185
116 94 30 3 14 255 285 222 253 261 255 248 240 219 169 153 149 148 150 156 156 158 163 166 174 183 182 183 186 189 190 187 191 191 195 193 192 202 207 202 197 196 198 195 190 189 194 194 191
168 142 156 190 219 275 317 243 260 276 290 256 188 160 138 132 141 149 154 154 155 159 165 170 180 187 183 185 192 191 189 192 199 199 196 198 202 205 201 199 199 198 195 194 187 193 200 196 199
140 169 156 131 154 277 290 291 303 292 358 87 126 137 138 136 141 139 142 149 156 160 171 181 182 183 184 188 188 189 190 193 199 200 196 201 204 204 197 197 199 200 193 190 184 195 201 195 200
143 141 110 128 149 222 287 285 256 263 246 203 174 162 148 139 137 135 140 149 152 152 157 163 164 173 176 177 183 188 189 196 196 190 194 200 203 197 187 192 196 198 196 190 186 194 199 194 200
115 112 111 118 146 156 226 268 230 224 218 201 197 177 160 155 150 145 145 146 139 131 138 143 146 148 154 167 174 177 185 186 185 193 199 199 197 192 189 192 193 193 194 188 187 197 194 194 197
161 163 147 151 193 173 174 260 270 231 221 192 183 174 161 152 148 146 142 134 133 136 140 140 143 148 157 157 158 169 170 166 178 194 198 191 194 194 190 186 190 196 196 192 191 200 198 192 192
Height
1499 1498 1498 1500 1503 1513 1516 1508 1502 1501 1500 1501 1501 1503 1505 1509 1512 1517 1514 1516 1520 1523 1526 1530 1532 1534 1536 1538 1539 1541 1542 1543 1545 1546 1547 1548 1549 1550 1552 1553 1554 1555 1556 1557 1558 1559 1559 1561 1561
1500 1499 1501 1501 1512 1527 1521 1508 1504 1502 1502 1502 1503 1504 1506 1508 1509 1510 1512 1517 1521 1524 1527 1530 1533 1536 1538 1539 1541 1542 1544 1545 1547 1548 1549 1550 1551 1552 1554 1555 1556 1557 1558 1559 1560 1561 1562 1563 1564
1500 1500 1502 1505 1517 1525 1518 1507 1505 1503 1503 1503 1504 1506 1507 1509 1510 1512 1514 1518 1522 1526 1529 1532 1534 1537 1539 1541 1543 1544 1546 1547 1549 1550 1551 1552 1553 1555 1556 1557 1558 1559 1560 1561 1562 1563 1564 1565 1567
1502 1503 1504 1512 1518 1514 1510 1505 1504 1504 1504 1504 1505 1508 1510 1512 1513 1514 1516 1520 1523 1527 1530 1533 1536 1538 1540 1542 1544 1546 1548 1549 1550 1552 1553 1554 1555 1557 1558 1559 1560 1561 1562 1563 1564 1566 1567 1568 1569
1503 1504 1511 1520 1517 1510 1505 1503 1503 1504 1505 1506 1507 1509 1512 1514 1515 1516 1518 1521 1525 1528 1532 1535 1537 1540 1542 1544 1546 1547 1549 1551 1552 1553 1555 1556 1557 1559 1560 1561 1562 1563 1565 1566 1567 1568 1570 1571 1572
1504 1506 1521 1526 1517 1507 1503 1502 1503 1504 1506 1507 1508 1510 1513 1514 1516 1518 1520 1523 1527 1530 1533 1536 1539 1541 1543 1545 1547 1549 1550 1552 1554 1555 1557 1558 1559 1561 1562 1563 1564 1566 1567 1568 1570 1571 1572 1574 1575
1506 1512 1521 1520 1518 1510 1504 1503 1504 1504 1506 1508 1509 1510 1512 1514 1517 1519 1522 1525 1528 1531 1534 1537 1539 1542 1544 1546 1549 1550 1552 1554 1555 1557 1558 1560 1561 1563 1564 1565 1567 1568 1569 1571 1572 1574 1575 1576 1577
1506 1512 1519 1520 1517 1511 1504 1503 1503 1505 1507 1508 1509 1510 1511 1514 1516 1519 1523 1526 1529 1532 1535 1537 1540 1543 1545 1548 1550 1552 1554 1555 1557 1559 1560 1562 1563 1565 1566 1567 1569 1570 1572 1573 1574 1576 1577 1579 1580
1507 1516 1522 1517 1513 1508 1503 1504 1504 1504 1506 1507 1508 1509 1510 1513 1515 1519 1522 1526 1529 1532 1535 1537 1540 1543 1546 1548 1551 1553 1555 1557 1558 1560 1562 1563 1565 1566 1567 1569 1570 1572 1574 1575 1577 1578 1580 1581 1582
1507 1519 1514 1507 1505 1503 1502 1503 1503 1504 1505 1506 1507 1508 1510 1512 1515 1517 1520 1523 1526 1530 1534 1537 1540 1543 1546 1549 1551 1553 1555 1557 1559 1561 1563 1564 1566 1568 1569 1571 1572 1573 1575 1577 1578 1580 1581 1583 1584
1506 1510 1505 1502 1501 1501 1501 1501 1502 1503 1504 1502 1503 1505 1508 1511 1514 1516 1519 1522 1525 1529 1533 1537 1540 1543 1546 1548 1551 1553 1556 1558 1560 1562 1564 1566 1567 1569 1570 1572 1573 1575 1576 1578 1580 1581 1583 1584 1585
1506 1503 1502 1500 1499 1499 1499 1500 1501 1501 1499 1499 1501 1503 1505 1508 1510 1514 1517 1521 1525 1529 1532 1536 1539 1543 1546 1548 1551 1553 1556 1558 1561 1563 1565 1567 1568 1570 1571 1573 1574 1576 1578 1579 1581 1583 1584 1586 1587
1505 1502 1500 1498 1497 1497 1497 1498 1499 1498 1497 1499 1501 1503 1503 1505 1509 1513 1518 1522 1525 1528 1532 1535 1538 1542 1545 1548 1551 1554 1556 1559 1561 1563 1565 1567 1569 1571 1572 1574 1575 1577 1579 1580 1582 1584 1585 1586 1588
1503 1502 1499 1496 1495 1495 1496 1496 1498 1495 1496 1498 1499 1501 1503 1504 1508 1513 1517 1520 1523 1527 1531 1534 1538 1541 1545 1548 1551 1553 1556 1559 1561 1564 1566 1568 1570 1572 1573 1575 1576 1578 1579 1581 1583 1584 1586 1587 1588
1503 1502 1499 1496 1495 1495 1496 1498 1495 1493 1495 1496 1499 1501 1503 1506 1508 1511 1514 1519 1523 1527 1531 1534 1538 1541 1544 1547 1550 1553 1556 1559 1561 1563 1566 1568 1570 1572 1574 1575 1577 1578 1580 1582 1583 1585 1586 1588 1589
1504 1508 1511 1500 1497 1496 1499 1505 1492 1492 1494 1496 1499 1501 1504 1506 1508 1511 1515 1519 1523 1527 1531 1534 1538 1540 1543 1547 1550 1553 1555 1558 1560 1563 1565 1568 1570 1572 1574 1576 1577 1579 1580 1582 1583 1585 1586 1588 1589
1515 1520 1516 1506 1497 1497 1500 1501 1493 1493 1494 1496 1498 1501 1503 1506 1508 1511 1514 1518 1522 1526 1530 1533 1537 1539 1543 1546 1549 1552 1554 1557 1559 1562 1564 1567 1569 1571 1573 1575 1577 1578 1580 1582 1583 1585 1586 1588 1589
1521 1519 1517 1513 1501 1499 1501 1499 1493 1493 1494 1495 1498 1500 1502 1504 1506 1509 1513 1517 1520 1525 1529 1532 1535 1538 1542 1545 1547 1550 1553 1555 1558 1560 1563 1565 1567 1570 1572 1574 1576 1577 1579 1581 1582 1584 1586 1587 1588
1513 1516 1519 1511 1501 1501 1501 1500 1495 1494 1495 1496 1497 1499 1500 1502 1505 1509 1512 1515 1519 1523 1526 1529 1533 1536 1539 1542 1544 1547 1549 1552 1555 1558 1561 1563 1566 1568 1570 1572 1574 1576 1578 1580 1581 1583 1584 1586 1587
1512 1517 1517 1508 1500 1501 1502 1501 1496 1494 1494 1494 1495 1496 1498 1501 1504 1506 1510 1513 1517 1520 1523 1526 1530 1533 1537 1540 1543 1545 1548 1550 1553 1556 1559 1561 1564 1566 1568 1571 1573 1575 1576 1578 1580 1581 1583 1584 1585
1512 1515 1513 1511 1505 1502 1504 1507 1501 1496 1494 1494 1494 1495 1496 1498 1501 1503 1506 1509 1513 1516 1520 1523 1527 1531 1535 1538 1541 1544 1547 1549 1551 1554 1556 1559 1561 1564 1566 1569 1571 1573 1574 1576 1578 1579 1581 1582 1584
1514 1505 1506 1507 1514 1520 1512 1526 1508 1500 1497 1494 1493 1493 1494 1497 1499 1501 1503 1506 1509 1512 1516 1521 1525 1528 1532 1536 1539 1541 1543 1545 1548 1551 1554 1556 1559 1561 1564 1566 1568 1570 1572 1574 1576 1577 1579 1580 1582
1504 1499 1503 1506 1512 1521 1518 1524 1516 1503 1500 1494 1491 1491 1493 1495 1497 1499 1502 1504 1507 1511 1514 1518 1522 1526 1530 1533 1536 1539 1541 1544 1547 1549 1551 1554 1557 1559 1561 1563 1565 1567 1569 1571 1573 1575 1576 1578 1579
1496 1502 1509 1517 1523 1533 1521 1525 1521 1507 1498 1492 1490 1491 1492 1494 1496 1499 1501 1504 1506 1510 1513 1517 1520 1524 1527 1530 1533 1536 1539 1541 1544 1546 1548 1551 1554 1556 1558 1560 1562 1564 1566 1568 1570 1572 1574 1575 1577
1498 1516 1535 1535 1543 1539 1523 1523 1518 1496 1491 1490 1489 1490 1492 1494 1496 1497 1500 1503 1506 1509 1512 1515 1519 1522 1525 1528 1530 1533 1536 1539 1541 1543 1545 1548 1550 1552 1554 1557 1558 1560 1562 1564 1566 1568 1570 1572 1573
1500 1510 1533 1542 1545 1538 1523 1523 1507 1491 1488 1487 1487 1489 1492 1494 1496 1498 1499 1503 1506 1508 1511 1514 1517 1520 1523 1525 1528 1530 1533 1535 1538 1540 1542 1545 1547 1549 1551 1553 1555 1557 1559 1561 1563 1564 1566 1568 1570
1501 1507 1509 1529 1534 1537 1530 1517 1500 1489 1488 1487 1487 1489 1491 1494 1496 1498 1500 1503 1505 1508 1510 1513 1517 1519 1521 1523 1526 1528 1530 1533 1535 1537 1539 1541 1543 1546 1548 1549 1551 1553 1555 1557 1559 1560 1562 1564 1566
1489 1500 1516 1528 1542 1543 1530 1522 1513 1495 1490 1488 1488 1489 1491 1494 1496 1498 1501 1503 1506 1509 1511 1513 1516 1518 1520 1522 1524 1526 1528 1530 1531 1533 1535 1537 1539 1541 1543 1545 1547 1549 1551 1553 1555 1556 1558 1560 1561
1495 1501 1511 1524 1527 1540 1540 1525 1494 1489 1485 1486 1487 1488 1491 1493 1495 1498 1501 1503 1506 1509 1511 1513 1516 1517 1519 1521 1522 1524 1525 1527 1528 1530 1532 1533 1536 1537 1539 1541 1543 1544 1546 1548 1550 1552 1554 1555 1557
1483 1492 1504 1516 1523 1529 1531 1520 1483 1483 1482 1483 1485 1487 1490 1492 1495 1498 1500 1503 1506 1508 1511 1513 1515 1517 1518 1519 1521 1522 1523 1525 1526 1527 1529 1530 1532 1533 1535 1537 1539 1541 1542 1544 1545 1547 1549 1551 1552